Regional Weather Roundup
Issued by NWS Wakefield, VA

Home | Current Version | Previous Version | Text Only | Print | Product List | Glossary On
Versions: 1 2 3 4 5 6 7 8 9 10 11 12 13 14 15 16 17 18 19 20 21 22 23 24 25 26 27 28 29 30 31 32 33 34 35 36 37 38 39 40 41 42 43 44 45 46 47 48 49 50
000
ASUS41 KAKQ 021015
RWRAKQ

REGIONAL WEATHER ROUNDUP
NATIONAL WEATHER SERVICE WAKEFIELD VA
600 AM EDT THU JUL 02 2015

Note: "fair" indicates few or no clouds below 12,000 feet with no
significant weather and/or obstructions to visibility. * = Denotes
station may not report precipitation (e.g., rain,snow,etc.),
thunder or fog.

VAZ042-051-052>054-056-021100-
NORTHERN VIRGINIA

CITY           SKY/WX    TMP DP  RH WIND       PRES   REMARKS
WASH NATIONAL  CLOUDY    74  69  85 NE5       29.88S
DULLES         CLOUDY    70  64  81 NW7       29.89S
FORT BELVOIR   MOCLDY    69  68  96 W1        29.87S
QUANTICO       MOCLDY    72  68  87 NW8       29.88R
FREDERICKSBRG* NOT AVBL
STAFFORD*      NOT AVBL
WARRENTON      NOT AVBL
CULPEPER*      NOT AVBL
MANASSAS*      CLOUDY    68  66  94 N5        29.89R
LEESBURG*      NOT AVBL
WINCHESTER     NOT AVBL
FRONT ROYAL*   NOT AVBL
LURAY*         NOT AVBL
$$

VAZ048-049-060>072-079>083-021100-
CENTRAL AND SOUTH CENTRAL VIRGINIA

CITY           SKY/WX    TMP DP  RH WIND       PRES   REMARKS
RICHMOND       CLOUDY    76  71  85 CALM      29.85F HAZE
CHESTERFIELD*  NOT AVBL
PETERSBURG*    NOT AVBL
HANOVER        CLOUDY    71  70  96 CALM      29.87S FOG
TAPPAHANNOCK*  CLOUDY    72  68  88 CALM      29.87S FOG
QUINTON*       NOT AVBL
CHARLOTTSVILLE CLOUDY    70  61  73 N3        29.88S
GORDONSVILLE*  NOT AVBL
ORANGE*        NOT AVBL
LOUISA*        NOT AVBL
BUMPASS*       NOT AVBL
FARMVILLE*     NOT AVBL
CREWE*         NOT AVBL
FORT PICKETT*  NOT AVBL
CHASE CITY*    NOT AVBL
CLARKSVILLE*   NOT AVBL
SOUTH HILL*    NOT AVBL
LAWRENCEVILLE* NOT AVBL
EMPORIA*         N/A     72  72 100 CALM      29.89S FOG
$$

VAZ088>098-021100-
SOUTHEAST VIRGINIA

CITY           SKY/WX    TMP DP  RH WIND       PRES   REMARKS
NORFOLK        PTCLDY    75  70  84 SW12      29.87S
VIRGINIA BEACH MOCLDY    77  71  82 SW9       29.87S
NORFOLK NAVAL  MOCLDY    75  71  87 S5        29.88S HAZE
WEST POINT*    NOT AVBL
SALUDA*        NOT AVBL
NEWPORT NEWS   CLOUDY    76  72  87 SE3       29.86F
LANGLEY AFB    PTCLDY    76  72  85 S7        29.85S
FORT EUSTIS    CLOUDY    76  76 100 S3        29.85S
WILLIAMSBURG*  NOT AVBL
HR EXEC AP*    FAIR      73  70  88 S5        29.89F
FRANKLIN*      MOCLDY    73  71  94 S6        29.88S
WAKEFIELD      CLOUDY    75  71  87 S5        29.87R
$$

VAZ020-022-025-037-045-021100-
WEST CENTRAL AND SOUTHWEST VIRGINIA

CITY           SKY/WX    TMP DP  RH WIND       PRES   REMARKS
STAUNTON*      NOT AVBL
WAYNESBORO*    NOT AVBL
HOT SPRINGS VA CLOUDY    63  63 100 W9        30.00S FOG
LYNCHBURG      CLOUDY    69  67  93 CALM      29.91S
DANVILLE       CLOUDY    70  68  93 SW5       29.91R FOG
SOUTH BOSTON*  NOT AVBL
MARTINSVILLE   CLOUDY    68  68 100 CALM      29.95S FOG
ROANOKE        CLOUDY    71  65  81 W7        29.93F
BLACKSBURG     MOCLDY    65  65  97 CALM      30.00R
DUBLIN*        MOCLDY    65  64  99 SW3       29.99S
MARION*        NOT AVBL
HILLSVILLE*    NOT AVBL
RICHLANDS*     NOT AVBL
WISE*          NOT AVBL
ABINGDON*      NOT AVBL
$$

MDZ021>025-VAZ099-100-021100-
SOUTHERN MARYLAND AND THE DELMARVA PENINSULA

CITY           SKY/WX    TMP DP  RH WIND       PRES   REMARKS
PATUXENT RIVER MOCLDY    73  71  93 NE6       29.86F
BAY BRIDGE APT   N/A     70  70 100 CALM      29.88R
LEONARDTOWN    MOCLDY    68  64  88 CALM      29.88S
DOVER          FOG       68  68 100 CALM      29.85S VSB 1/2
GEORGETOWN     CLEAR     67  65  93 CALM      29.88S FOG
EASTON         CLOUDY    70  70 100 CALM      29.91R FOG
CAMBRIDGE      PTCLDY    72  68  88 NW5       29.88R
SALISBURY      PTCLDY    68  66  93 CALM      29.87S FOG
OCEAN CITY     MOCLDY    68  66  93 CALM      29.87S FOG
WALLOPS ISLAND MOCLDY    72  71  97 CALM      29.87S FOG
ACCOMACK*      NOT AVBL
$$

NCZ012>017-030>032-021100-
NORTH CENTRAL AND EASTERN NORTH CAROLINA

CITY           SKY/WX    TMP DP  RH WIND       PRES   REMARKS
ROANOKE RAPIDS NOT AVBL
RALEIGH        CLOUDY    74  70  87 SW7       29.92R
ELIZABETH CITY PTCLDY    75  72  90 S7        29.90R
AHOSKIE*       PTCLDY    71  70  95 S3        29.89S FOG
EDENTON*       NOT AVBL
CURRITUCK*     NOT AVBL
KILL DEVIL HLS NOT AVBL
MANTEO         NOT AVBL
CAPE HATTERAS  CLEAR     79  75  87 SW9       29.94S
TARBORO*       NOT AVBL
GOLDSBORO      CLOUDY    75  72  88 SW5       29.89S
WASHINGTON     NOT AVBL
GREENVILLE     CLOUDY    77  72  83 SW8       29.93S
NEW BERN       MOCLDY    75  71  87 SW6       29.93F
WILMINGTON     PTCLDY    77  71  82 SW8       29.94S
$$

VAZ048-021100-
ELSEWHERE

CITY           SKY/WX    TMP DP  RH WIND       PRES   REMARKS
HARRISBURG PA  PTCLDY    64  59  83 NW6       29.89S
BALTIMORE      MOCLDY    67  64  90 CALM      29.88R
ANNAPOLIS      MOCLDY    70  67  90 CALM      29.87R
ANDREWS AFB    LGT RAIN  68  68 100 NE2       29.87S
PHILADELPHIA   PTCLDY    67  60  78 CALM      29.88S
GREENSBORO     CLOUDY    71  66  84 SW6       29.92F
ROCKY MOUNT    CLOUDY    75  71  87 S6        29.90R
$$

VAZ100-021100-
MARINE

STATION/POSITION TIME  TEMP    WIND        PRES    WAVE   SWELL
                       AIR SEA DIR/SP/G            HT/PER HT/PER
                 (UTC) (F)     (DEG/KT/KT) (MB)    (FT/S) (FT/S)
BRANDYWINE LGT   0900   73 74  360/  4/  4 1011.5F
CAPE MAY NJ      0900   72 78     CALM     1011.1F
LEWES DE         0912   71 72  210/  5/  5 1011.4S
15NM E FENWICK I 0950   73 73              1011.2F   3/ 8
OCEAN-CITY-INLET 0900   72 75     CALM     1011.1F
WACHAPREAGUE VA  0900   75 82  210/  1/  2 1011.3F
GOOSES REEF MD   1000   75 78  100/ 12/ 14 1011.9F
COVE POINT MD    0900   75     190/  5/  7 1011.9S
SOLOMONS ISLAND  0900      80                N/A
BISHOPS HEAD MD  0900   75     110/  6/  7 1011.0F
PINEY POINT MD   0900           90/  3/  4   N/A
CAMBRIDGE MD     0900   74 80  100/  3/  4 1011.0F
LEWISETTA VA     0900   75 80  200/  4/  5 1010.7F
RAPPAHANNOCK LGT 0900          190/ 10/ 11 1011.5F
STINGRAY PT      1000   78 80  230/  6/  8 1011.1S   0
YORK RVR RNG VA  0900   78     230/  9/ 11 1010.5F
YORKTOWN VA      0900   76 80  220/  8/ 10 1010.7F
JAMESTOWN VA     1000   76 83  200/  6/ 10   N/A
DOMINION TERM VA 0900   76     220/ 13/ 14 1011.1F
KIPTOPEKE VA     0900      83  190/  6/  8   N/A
CHES BAY BRIDGE  0900   77 78  190/  7/ 10 1010.9F
CAPE HENRY VA    0900   76     210/  7/  9 1009.8F
CHESAPEAKE LGHT  0900   77     210/ 10/ 11 1012.2F
WILLOUBY STN VA  0900   76     230/ 12/ 14 1012.2F
CAPE HENRY BUOY  0928      78                N/A     3/ 8
1ST LANDING BUOY 1000      76              1011.2S   2/ 4
CAPE CHARLES BUO 0926      74                N/A     2/ 8   2/ 8
OFFSHORE WE BUOY 0911      78                N/A     4/ 8   3/ 8
64NM E OF VA BCH 0950   77 77  220/  8/ 10 1012.0F   4/ 8   3/ 8
DUCK PIER NC     0900   78 65  220/ 12/ 13 1011.6F
44100 DUCK FRF   0924      77                N/A     3/ 9
44056 DUCK FRF   0911      71                N/A     2/ 8
OREGON INLET NC  0900   79 81  220/ 12/ 14 1012.9F
HATTERAS NC      0900   76 80  210/  7/  9 1013.2F
DIAMOND SHLS NC  0950   81 83  230/ 16/ 19 1013.5F   5/ 7   3/ 7
CAPE LOOKOUT NC  1000   79     220/  9/ 13 1013.6F
$$


USA.gov is the U.S. government's official web portal to all federal, state and local government web resources and services.